Change the Weather History Date:

Thursday, August 8, 2013

  Actual Average Record
Temperature  
Mean Temperature 60 °F -  
Max Temperature 76 °F 88 °F 99 °F (2006)
Min Temperature 44 °F 55 °F 44 °F (2013)
Degree Days  
Heating Degree Days 5    
Cooling Degree Days 0    
Growing Degree Days 10 (Base 50)    
Moisture  
Dew Point 47 °F    
Average Humidity 64    
Maximum Humidity 93    
Minimum Humidity 35    
Precipitation  
Precipitation 0.00 in 0.05 in 0.61 in (2002)
Month to date precipitation 1.02 0.40  
Year to date precipitation 11.03 8.79  
Sea Level Pressure  
Sea Level Pressure 30.12 in    
Wind  
Wind Speed 3 mph (East)    
Max Wind Speed 12 mph    
Max Gust Speed -    
Visibility 10 miles    
Events      
T = Trace of Precipitation, MM = Missing Value Source: NWS Daily Summary

Daily Weather History Graph

Daily Weather History Graph

Search for Another Location

Airport or City:

Trip Planner

Search our weather history database for the weather conditions in past years. The results will help you decide how hot, cold, wet, or windy it might be!

Date:

Astronomy

Aug. 08, 2013 Rise Set
Actual Time 5:47 AM MDT 8:27 PM MDT
Civil Twilight 5:12 AM MDT 9:02 PM MDT
Nautical Twilight 4:27 AM MDT 9:46 PM MDT
Astronomical Twilight 3:34 AM MDT 10:38 PM MDT
Moon 7:50 AM MDT (8/8) 8:51 PM MDT (8/8)
Length of Visible Light 15h 49m
Length of Day
14h 39m
Waxing Crescent, 3% of the Moon is Illuminated
Aug 8
Waxing Crescent
Aug 14
First Quarter
Aug 20
Full
Aug 28
Last Quarter
Sep 5
New

Hourly Weather History & Observations

Time (MDT) Temp. Dew Point Humidity Pressure Visibility Wind Dir Wind Speed Gust Speed Precip Events Conditions
12:53 AM 51.1 °F 46.0 °F 83% 30.09 in 10.0 mi ENE 3.5 mph - N/A   Clear
1:53 AM 48.9 °F 45.0 °F 86% 30.10 in 10.0 mi Calm Calm - N/A   Clear
2:53 AM 48.0 °F 44.1 °F 86% 30.12 in 10.0 mi Calm Calm - N/A   Clear
3:53 AM 46.9 °F 44.1 °F 90% 30.11 in 10.0 mi Calm Calm - N/A   Clear
4:53 AM 46.0 °F 44.1 °F 93% 30.12 in 9.0 mi Calm Calm - N/A   Clear
5:53 AM 44.1 °F 42.1 °F 93% 30.13 in 6.0 mi Calm Calm - N/A   Clear
6:53 AM 48.0 °F 45.0 °F 89% 30.13 in 8.0 mi Calm Calm - N/A   Clear
7:53 AM 53.1 °F 46.9 °F 80% 30.13 in 10.0 mi ENE 4.6 mph - N/A   Clear
8:53 AM 57.0 °F 48.0 °F 72% 30.13 in 10.0 mi ESE 4.6 mph - N/A   Clear
9:53 AM 63.0 °F 48.0 °F 58% 30.13 in 10.0 mi Calm Calm - N/A   Clear
10:53 AM 66.9 °F 46.0 °F 47% 30.13 in 10.0 mi Variable 3.5 mph - N/A   Clear
11:53 AM 71.1 °F 48.9 °F 45% 30.12 in 10.0 mi East 4.6 mph - N/A   Clear
12:53 PM 72.0 °F 48.9 °F 44% 30.11 in 10.0 mi Variable 4.6 mph - N/A   Clear
1:53 PM 73.9 °F 45.0 °F 35% 30.11 in 10.0 mi ENE 9.2 mph - N/A   Clear
2:53 PM 75.0 °F 46.9 °F 37% 30.10 in 10.0 mi Variable 6.9 mph - N/A   Clear
3:53 PM 73.9 °F 46.9 °F 38% 30.09 in 10.0 mi South 3.5 mph - N/A   Clear
4:53 PM 75.0 °F 46.9 °F 37% 30.09 in 10.0 mi SE 3.5 mph - N/A   Clear
5:53 PM 73.9 °F 48.9 °F 41% 30.10 in 10.0 mi East 6.9 mph - N/A   Clear
6:53 PM 73.0 °F 50.0 °F 44% 30.09 in 10.0 mi East 4.6 mph - N/A   Scattered Clouds
7:53 PM 68.0 °F 51.1 °F 55% 30.11 in 10.0 mi NE 11.5 mph - N/A   Scattered Clouds
8:53 PM 63.0 °F 50.0 °F 63% 30.14 in 10.0 mi NE 11.5 mph - N/A   Clear
9:53 PM 61.0 °F 50.0 °F 67% 30.16 in 10.0 mi ENE 6.9 mph - N/A   Partly Cloudy
10:53 PM 59.0 °F 48.9 °F 69% 30.18 in 10.0 mi ENE 9.2 mph - N/A   Scattered Clouds
11:53 PM 57.0 °F 48.9 °F 74% 30.18 in 10.0 mi ENE 5.8 mph - N/A   Overcast